Flag for Micronesia Weather past 2 weeks in Kolonia, Ponape, Micronesia

Now
91 °F

Broken clouds.


Feels Like: 110 °F
Forecast: 74 / 86 °F
Wind: 6 mph from West

Location: Pohnpei

Current Time: Jul 30, 2014 at 12:38:26 PM

Latest Report: Jul 30, 2014 at 11:52 AM


Visibility: 15 mi

Pressure: 29.89 "Hg

Humidity: 71%

Dew point: 80 °F

Location of KoloniaLocation

Historic Weather in Kolonia — Graph

°F

Kolonia temperature yesterday

Maximum temperature yesterday: 91 °F (at 12:52 PM)
Minimum temperature yesterday: 74 °F (at 4:53 AM)
Average temperature yesterday: 81 °F

Past Weeks' High & Low Weather Summary

 TemperatureHumidityPressure
High91 °F (Jul 29, 12:52 PM)99% (Jul 20, 4:54 AM)29.94 "Hg (Jul 20, 4:54 AM)
Low74 °F (Jul 29, 4:53 AM)57% (Jul 29, 12:52 PM)29.75 "Hg (Jul 23, 3:55 AM)
Average80 °F87%29.83 "Hg
* Reported Jul 15 10:54 AM — Jul 30 10:52 AM, Kolonia, Weather by CustomWeather, © 2014

Note: Actual official high and low records may vary slightly from our data, if they occured in-between our weather recording intervals... More about our weather records

Advertising

Kolonia weather history for previous 24 hours

 ConditionsComfort  
Time TempWeatherWind HumidityBarometerVisibility
10:52 AM
Jul 30
88 °FCloudy.5 mph73%29.90 "Hg15 mi
9:52 AM85 °FCloudy.5 mph86%29.91 "Hg15 mi
8:53 AM85 °FCloudy.3 mph84%29.90 "Hg15 mi
5:50 AM78 °FOvercast.3 mph95%29.87 "Hg15 mi
4:50 AM78 °FPartly cloudy.3 mph94%29.87 "Hg15 mi
3:50 AM78 °FPartly cloudy.3 mph95%29.87 "Hg15 mi
2:50 AM78 °FPartly cloudy.3 mph94%29.88 "Hg15 mi
1:50 AM78 °FPartly cloudy.3 mph96%29.88 "Hg15 mi
12:50 AM78 °FPartly cloudy.3 mph95%29.90 "Hg15 mi
11:52 PM
Jul 29
78 °FMostly cloudy.3 mph95%29.93 "Hg15 mi
10:52 PM78 °FPassing clouds.5 mph94%29.94 "Hg15 mi
9:53 PM78 °FMostly cloudy.5 mph95%29.94 "Hg15 mi
8:52 PM78 °FPassing clouds.3 mph95%29.93 "Hg15 mi
7:54 PM79 °FPassing clouds.3 mph94%29.91 "Hg15 mi
6:52 PM81 °FPassing clouds.3 mph88%29.89 "Hg15 mi
5:52 PM84 °FBroken clouds.3 mph77%29.88 "Hg15 mi
4:53 PM86 °FBroken clouds.7 mph73%29.85 "Hg15 mi
3:54 PM88 °FMore clouds than sun.3 mph73%29.85 "Hg15 mi
2:51 PM90 °FMore clouds than sun.6 mph68%29.85 "Hg15 mi
12:52 PM91 °FBroken clouds.8 mph57%29.88 "Hg15 mi
Weather by CustomWeather, © 2014

See weather overviewHow to use our weather pages